User: anonymous   Login
Location: Malvern Link
(52.1333°N, 2.3000°W)
Time: 00:05:45
(UTC+00:00)
Language:

KAITUO 1B - Orbit

View from above orbital plane
View from above orbital plane
View from above satellite
View from above satellite

Ground track
Ground track

The orbit data is extracted from the following two-line orbital elements,

1 40912U 15049P   22178.76403816  .00008694  00000-0  33740-3 0  9997
2 40912  97.4364 190.1164 0010593 265.1673 205.1737 15.26293346375327
Epoch (UTC): 27 June 2022 18:20:12
Eccentricity: 0.0010593
inclination: 97.4364°
perigee height: 479 km
apogee height: 494 km
right ascension of ascending node: 190.1164°
argument of perigee: 265.1673°
revolutions per day: 15.26293346
mean anomaly at epoch: 205.1737°
orbit number at epoch: 37532

The dashed part of the orbit path shows where the satellite is in the earth's shadow,  

DLR